Lapse_Rate
2.5 2.2 1.7 1.5 1.1 1.2 1.3 1.4 1.5 2.4 3.5 3.9 4.3 4.5 4.7 4.2 3.4 3.0 2.9 2.6 2.1 1.4 1.1 1.1 0.5 0.8 0.4 0.8 1.1 1.6 2.4 2.6 2.7 4.1 5.0 5.5 4.7 5.1 4.5 4.6 4.9 4.4 4.4
2.5 2.3 2.0 1.5 1.3 1.3 1.3 1.3 1.8 1.9 2.8 3.4 3.7 3.8 3.9 4.2 3.4 3.0 3.1 2.9 2.2 1.5 1.5 1.6 1.1 1.5 0.6 0.8 0.9 1.4 2.1 2.6 2.8 3.5 4.7 4.3 3.7 4.1 4.3 4.4 4.3 4.7 4.1
3.9 2.7 2.0 1.7 1.5 1.4 1.6 1.2 1.5 1.9 2.0 2.6 2.8 2.9 3.3 3.6 3.8 3.5 3.2 3.3 2.8 1.9 1.3 1.5 0.7 0.3 0.4 0.2 0.3 0.5 1.2 2.6 2.7 2.8 3.9 3.8 3.2 4.2 4.0 4.0 3.4 3.4 4.3
2.0 3.3 3.6 2.4 1.9 1.6 1.8 1.5 1.5 1.6 2.3 1.9 2.0 2.3 2.5 3.0 3.8 3.0 2.9 2.4 2.6 1.6 1.1 0.7 0.6 0.0 0.1 0.1 0.4 1.0 2.0 1.8 2.3 2.4 2.9 4.6 5.5 4.9 4.5 3.6 3.6 3.4 5.0
1.1 1.5 3.9 4.1 2.6 2.1 1.8 2.0 2.3 2.0 2.7 2.6 2.5 2.5 2.8 3.1 4.4 2.9 2.5 1.9 1.4 0.4 0.3 -0.3 -0.1 0.6 1.4 1.5 0.5 0.9 2.0 2.0 2.1 2.7 3.3 4.0 4.6 4.8 5.2 4.3 4.1 3.8 3.7
2.7 2.5 3.2 3.4 4.0 2.0 2.7 2.2 2.5 2.6 2.6 2.9 2.7 2.8 3.1 4.0 3.4 1.6 2.5 2.0 1.1 0.7 0.1 -0.4 0.8 1.8 2.2 2.8 2.9 3.4 2.2 1.5 1.5 2.2 2.5 5.4 5.5 4.7 4.3 3.8 3.8 4.6 4.1
2.6 1.9 3.6 4.3 3.7 2.9 3.2 3.0 2.9 2.8 3.1 3.4 3.4 3.3 3.3 3.0 1.9 0.7 1.7 2.3 0.6 0.5 -0.2 -0.3 1.1 1.6 1.5 1.5 3.2 3.3 3.6 3.6 3.0 1.9 2.4 3.6 5.2 4.7 4.1 3.6 4.0 3.6 4.9
2.0 2.1 3.7 4.6 4.1 3.7 4.1 4.2 4.4 3.9 3.5 4.3 4.2 3.8 3.4 2.1 0.1 -0.6 1.2 1.3 -0.3 -0.0 0.2 0.4 0.9 -0.5 0.3 1.2 0.9 1.1 1.4 1.8 2.2 3.3 3.0 3.6 4.5 4.6 4.0 3.6 4.2 3.2 5.0
3.9 2.1 2.8 3.6 3.5 3.4 4.0 4.5 4.5 3.8 4.0 4.1 4.3 4.2 3.9 2.3 -2.1 -1.6 0.9 0.4 -0.5 0.5 0.9 0.3 0.8 0.5 0.5 0.7 1.3 1.1 1.7 2.0 2.9 4.0 4.6 5.5 5.3 5.0 4.5 2.9 3.1 3.3 3.6
2.4 3.0 1.5 2.4 3.1 4.4 4.2 3.8 3.8 4.1 4.6 4.0 4.1 3.7 2.2 2.6 -2.6 -2.1 0.4 1.6 0.1 0.3 0.1 0.7 1.5 1.4 0.3 0.2 1.1 1.5 1.5 2.2 2.9 2.7 3.4 5.0 5.8 5.5 5.7 4.2 2.7 3.4 2.3
2.7 1.0 0.3 1.6 2.4 3.1 3.2 3.9 4.2 4.1 4.2 3.9 3.7 3.5 3.1 2.2 -1.1 -2.7 -1.5 1.1 -0.5 -0.8 0.6 1.0 1.3 0.4 -0.3 -0.6 0.9 1.7 2.1 1.8 4.5 2.5 2.5 3.4 4.5 4.4 4.7 4.5 4.0 3.0 2.6
3.6 3.4 2.9 1.9 2.1 3.2 3.7 4.0 4.4 4.3 4.4 4.0 3.2 2.8 2.9 2.6 -1.2 -3.1 -2.3 -0.9 -1.1 -0.7 -0.2 0.2 1.9 -1.2 -1.3 -1.0 0.7 1.8 1.5 3.5 4.9 2.3 2.3 2.6 3.0 3.3 3.9 4.6 4.3 4.4 3.8
3.5 4.1 4.0 3.2 3.0 2.7 3.7 4.2 4.2 4.1 4.2 4.1 3.5 3.5 3.0 2.3 0.2 -2.9 -3.0 -2.3 -1.9 -0.4 -0.4 0.6 -0.1 -2.2 -1.5 -0.9 -0.4 0.0 1.8 2.9 2.8 2.0 2.1 2.2 2.7 3.0 4.7 4.7 4.5 3.7 3.4
3.4 3.4 3.2 3.5 2.5 3.2 2.3 1.6 1.7 2.1 2.6 2.7 2.3 2.0 2.2 2.2 0.6 -1.2 -1.6 -1.8 -1.5 -0.3 -0.0 0.5 -0.0 -0.5 0.6 1.0 -0.0 0.9 1.9 2.7 3.0 2.3 1.7 1.9 2.0 2.9 3.5 3.5 4.5 4.5 3.9
3.5 3.0 2.7 2.6 2.8 3.0 0.4 0.0 0.9 -2.5 -2.6 2.0 1.0 0.7 1.2 1.4 -1.3 -5.2 -1.0 -0.5 -0.4 -1.5 -1.2 -1.1 -0.3 -0.9 0.4 2.0 1.5 1.0 1.8 1.8 2.6 1.8 1.8 1.7 2.1 2.9 2.4 2.6 2.2 3.7 4.7
4.1 3.0 2.1 2.3 2.6 3.0 3.0 1.7 -4.2 -4.8 -5.9 -5.8 -7.2 -3.5 -2.7 -5.7 -7.7 -6.3 -3.9 -2.9 -4.5 -3.7 -1.5 -0.9 -0.9 -0.5 -0.0 1.1 1.9 2.7 2.3 2.3 2.7 2.7 2.4 2.0 2.0 2.3 2.3 2.8 2.6 2.7 3.9
3.8 2.3 3.1 2.4 2.7 2.8 3.0 3.2 2.1 -3.3 -6.0 -6.8 -7.1 -7.7 -7.9 -8.1 -8.6 -8.4 -5.7 -6.0 -6.8 -2.8 -0.9 -1.5 -1.1 -1.0 0.1 1.1 1.6 2.6 2.8 2.5 3.0 3.1 2.5 1.9 1.9 2.2 2.6 2.3 2.8 2.5 3.2
4.4 2.1 3.4 3.0 2.5 2.2 2.1 2.6 3.7 3.7 2.9 0.4 -5.6 -6.0 -7.7 -7.6 -7.6 -7.3 -6.9 -4.6 -1.2 1.0 0.2 -0.0 0.9 0.4 0.5 1.5 2.0 2.6 3.4 3.2 4.2 3.4 2.8 2.3 2.2 2.1 1.8 2.5 2.4 2.2 2.1
3.9 2.9 2.7 2.8 1.9 1.1 1.3 1.7 2.2 3.1 1.8 1.1 -0.2 -1.7 -3.0 -4.1 -5.8 -6.5 -3.2 -0.1 0.2 1.2 0.9 1.3 1.8 1.4 1.5 3.3 2.8 2.8 3.7 3.9 4.6 4.4 3.3 2.9 2.4 2.2 2.3 2.2 2.5 1.9 1.8
3.4 2.3 2.2 2.3 1.7 1.3 0.6 0.6 0.5 1.3 1.0 0.6 -0.4 -2.1 -2.0 0.3 0.7 0.7 1.8 2.4 2.5 2.6 2.7 2.6 2.2 2.3 2.6 3.4 3.8 4.6 4.0 4.0 4.4 4.6 3.7 3.3 2.7 2.7 2.5 2.5 2.3 2.1 1.8
2.4 2.1 2.0 1.9 1.3 0.5 -0.1 -0.3 -0.7 -0.3 -0.3 -0.5 -0.6 -2.7 -4.3 1.9 1.9 2.0 2.1 2.5 2.9 3.2 3.1 2.7 2.0 2.2 2.8 3.8 3.4 4.1 4.6 4.8 4.9 5.3 4.1 3.7 3.1 3.1 2.7 2.8 2.8 2.7 2.6
1.6 1.1 1.3 1.7 1.3 0.6 -0.0 -0.3 -0.9 -1.1 -1.3 -1.5 -1.8 -2.8 -3.6 -1.6 -1.4 -1.3 -1.8 -2.0 -2.1 -1.8 -1.1 2.2 2.8 3.0 3.3 3.7 4.4 4.8 4.4 3.3 4.3 4.3 4.2 4.1 3.9 3.6 3.3 3.0 2.9 3.1 2.5
1.0 0.7 0.4 -0.1 0.2 -0.5 -0.6 -1.1 -1.5 -1.7 -2.3 -2.4 -2.8 -2.9 -3.0 -3.1 -3.4 -3.5 -3.4 -4.0 -4.1 -4.0 -3.9 -2.6 -0.9 1.3 3.1 3.6 3.7 3.9 4.6 4.1 3.4 4.1 4.3 4.1 4.5 4.3 3.6 3.7 3.7 3.3 2.8
0.1 0.2 -0.1 -0.8 -0.9 -1.4 -1.4 -1.3 -1.7 -2.7 -2.6 -2.7 -3.1 -3.5 -3.5 -3.7 -3.5 -3.8 -4.0 -4.2 -4.3 -4.8 -5.1 -4.7 -4.0 -3.2 -1.9 -0.0 0.3 1.3 2.2 2.0 1.0 2.9 3.6 4.2 4.9 3.1 4.4 4.2 4.3 3.2 3.4
0.6 0.3 -0.2 -0.8 -0.8 -1.5 -1.5 -1.4 -2.0 -2.4 -2.6 -2.7 -2.6 -3.0 -3.3 -3.5 -3.6 -3.6 -3.8 -3.9 -4.1 -4.3 -4.5 -4.9 -5.3 -4.8 -4.5 -4.0 -3.1 -2.2 -2.9 -1.1 1.3 1.5 2.6 2.9 3.8 4.5 4.7 5.0 4.1 4.0 3.4
1.4 0.7 -0.0 -0.3 -0.4 -0.8 -1.0 -1.1 -1.1 -1.5 -2.0 -2.0 -2.3 -2.8 -2.6 -2.7 -3.1 -3.5 -3.7 -3.7 -3.7 -4.1 -4.2 -4.5 -4.7 -5.3 -5.3 -5.4 -5.7 -5.1 -2.5 -2.7 0.7 1.9 2.9 3.1 2.4 1.8 3.8 5.0 4.4 4.3 3.9
Wind_Speed
11 10 8 8 8 7 6 6 6 5 6 6 5 4 3 5 6 6 6 6 6 6 3 5 4 3 4 4 3 3 2 2 4 2 2 3 3 5 5 9 10 13 14
12 11 12 10 8 7 8 7 6 6 5 6 6 5 4 4 6 7 6 6 7 6 6 5 4 3 5 5 3 3 2 2 4 5 0 2 4 3 4 4 5 9 13
5 6 9 10 9 11 10 7 7 7 7 6 6 6 6 5 6 7 6 6 7 6 6 6 5 6 4 4 3 4 4 4 4 4 1 1 3 2 4 4 4 5 10
5 6 9 11 12 12 11 8 7 7 7 7 7 7 7 6 5 6 7 6 6 6 5 6 6 6 6 5 5 4 4 5 4 4 3 2 1 3 3 2 4 3 5
7 5 10 12 11 10 9 10 9 8 8 7 7 6 6 6 5 7 8 7 7 6 5 5 6 9 11 7 4 4 6 4 4 3 2 1 1 1 2 0 2 2 5
8 8 9 11 11 11 10 10 9 8 7 7 7 7 7 5 9 14 12 9 8 9 7 5 6 12 10 11 11 9 6 4 4 2 1 2 2 2 3 2 1 2 3
9 10 10 12 12 11 10 9 9 9 8 9 7 7 7 7 10 14 15 10 9 8 9 8 7 6 8 6 11 12 11 11 6 4 4 2 2 2 3 2 2 2 2
7 7 10 10 11 10 10 11 10 8 9 9 9 8 7 7 7 15 15 11 8 8 10 9 9 7 7 8 7 6 6 5 5 3 3 2 1 4 3 4 4 3 2
7 5 11 8 7 7 9 10 8 6 7 8 7 10 9 7 8 14 12 9 8 9 8 6 10 9 11 13 8 7 5 3 7 7 5 4 8 12 11 5 2 3 3
8 10 9 7 4 6 8 7 5 4 8 7 8 7 8 6 9 16 12 8 8 7 7 6 12 11 13 14 9 8 6 4 4 3 3 5 7 8 10 5 5 3 3
10 11 8 6 5 6 7 3 4 6 6 6 6 5 5 6 7 16 13 9 9 7 8 8 7 13 15 15 13 8 7 7 5 4 3 3 3 3 2 5 6 4 3
10 10 8 6 3 3 4 3 5 5 4 5 3 3 4 5 9 14 16 10 13 9 9 7 8 15 15 13 11 13 14 9 4 4 3 3 3 2 2 6 6 5 1
9 9 8 7 6 5 5 4 2 2 0 2 3 3 4 3 5 12 12 15 15 8 7 9 12 15 13 8 12 14 17 6 4 4 3 2 2 2 1 5 12 15 14
7 7 7 7 6 4 3 4 4 4 4 3 2 3 3 3 2 4 6 6 7 5 9 8 9 11 11 9 6 7 6 7 7 5 4 2 3 1 2 1 3 3 5
7 6 6 5 6 1 4 4 4 4 3 2 3 3 2 2 1 4 7 8 9 7 9 6 5 4 4 5 4 4 4 5 6 5 5 4 3 2 1 1 2 2 3
5 5 4 5 5 5 2 2 12 10 6 10 7 5 0 2 4 4 3 5 12 16 5 5 6 5 6 5 5 5 5 6 6 7 7 5 5 4 3 1 2 3 3
4 5 4 4 3 4 4 3 2 4 9 7 8 6 5 7 9 9 8 10 12 11 4 6 7 7 5 5 5 4 4 4 9 8 7 7 6 6 5 4 3 2 2
4 7 4 4 4 4 3 4 3 2 2 2 5 7 7 7 9 7 10 14 7 3 4 6 6 6 6 6 5 6 5 6 8 8 7 7 7 8 6 6 6 4 4
4 4 4 3 4 4 4 4 4 4 4 4 4 5 7 6 8 9 1 4 7 6 6 6 6 6 7 7 6 5 5 7 9 9 8 8 8 7 7 7 6 8 7
4 9 5 3 4 5 5 4 4 5 5 5 5 5 5 2 3 4 4 3 3 3 3 4 6 7 7 6 6 5 4 4 8 9 10 9 8 8 7 8 8 8 7
3 4 7 4 4 4 4 4 4 5 5 5 4 7 10 2 3 3 4 4 3 1 3 3 4 4 4 5 4 3 2 4 7 8 9 10 10 9 8 8 8 8 7
3 4 4 4 4 5 4 4 4 4 4 4 3 5 11 6 5 5 5 4 4 4 4 2 4 5 5 6 5 6 6 5 5 8 9 10 11 10 9 8 7 7 7
4 4 4 4 4 5 5 5 4 5 4 4 4 4 5 5 5 5 5 5 5 5 5 5 4 2 3 6 9 7 7 6 5 6 9 10 10 9 10 9 8 8 8
4 4 3 4 4 5 5 4 4 7 5 5 5 5 5 5 5 5 5 5 5 5 7 6 6 7 5 6 6 3 5 4 6 7 9 7 9 8 9 9 9 11 10
3 4 4 4 4 5 5 4 5 6 6 5 4 4 4 5 5 5 5 4 5 5 6 8 9 9 9 9 7 6 6 3 8 3 11 7 3 4 6 8 7 8 9
3 4 4 4 4 5 5 5 5 5 6 5 4 5 5 4 5 5 5 6 5 6 6 9 12 13 11 8 8 8 5 3 12 10 12 6 7 6 4 4 8 8 11
Wind_Direction
192 190 188 203 204 194 208 229 240 223 230 203 202 173 139 133 156 154 154 149 142 134 119 109 78 92 70 62 42 46 60 101 116 28 82 80 85 103 69 70 44 26 24
201 196 194 195 199 195 212 215 228 238 225 205 204 198 184 163 164 167 168 168 152 150 147 121 120 87 64 72 49 29 29 162 124 132 63 66 77 85 87 58 26 22 15
263 229 199 201 194 203 213 213 201 223 232 228 211 211 211 210 180 180 178 169 161 156 152 145 135 105 80 73 48 58 53 73 86 110 124 89 83 85 70 44 16 10 22
346 242 233 214 204 207 209 206 202 204 222 224 222 219 220 219 202 162 160 150 147 141 138 132 137 122 123 104 82 76 86 88 90 96 66 67 93 96 77 80 45 12 25
294 300 238 235 219 206 206 205 207 198 216 225 215 227 228 216 206 163 156 153 140 128 115 119 118 129 126 123 115 103 100 97 98 97 93 73 84 136 110 103 92 33 34
254 290 267 220 220 205 211 208 203 204 208 218 224 214 226 230 207 166 156 156 150 144 139 123 116 116 111 113 111 105 121 134 122 126 152 107 108 112 118 134 113 19 32
288 320 261 219 212 206 204 203 205 202 198 214 221 214 224 230 213 170 159 155 154 151 146 142 136 133 115 108 91 80 73 74 100 146 133 151 150 143 126 102 32 65 76
331 343 292 208 208 205 205 210 213 203 200 213 220 218 220 235 219 172 159 146 143 155 158 158 145 148 142 126 110 92 76 79 97 92 106 173 200 118 106 124 124 116 62
339 345 303 233 203 201 205 220 212 199 204 209 211 215 216 229 182 156 142 144 155 164 158 161 153 160 167 135 124 119 107 87 86 84 57 87 127 115 118 114 98 110 55
317 301 295 310 293 211 214 213 205 193 212 211 219 210 210 218 158 165 152 156 159 151 157 170 170 171 175 150 142 143 146 179 148 86 39 82 111 132 135 157 142 133 127
308 305 294 291 322 227 235 213 211 221 228 222 213 208 196 199 171 177 164 160 164 161 167 181 187 171 172 173 155 163 170 156 170 114 87 58 47 48 78 146 177 150 140
321 303 306 302 278 180 216 249 250 233 239 253 246 223 207 182 159 188 179 161 162 163 175 177 186 168 166 159 164 172 151 152 145 121 116 95 90 32 14 60 85 109 101
329 328 342 333 11 31 65 53 76 43 306 283 240 221 232 184 165 180 181 162 162 163 176 174 166 164 164 143 141 146 148 155 147 139 150 152 155 162 118 72 78 82 74
332 347 348 352 345 19 7 75 82 68 77 79 64 31 352 298 122 146 180 160 160 150 141 145 159 162 171 152 134 149 159 164 158 158 153 147 114 62 57 65 88 81 96
338 351 357 343 345 84 62 0 68 58 34 37 55 32 16 345 71 280 199 183 174 157 119 115 156 162 170 174 143 155 157 155 151 151 148 152 140 134 111 59 80 96 70
355 358 343 353 355 10 51 89 51 67 53 78 69 53 12 153 293 328 118 181 148 147 126 156 175 182 174 178 170 175 176 169 170 161 156 162 161 157 149 90 79 115 125
350 344 337 351 6 14 11 350 146 58 54 67 71 66 28 298 301 276 170 129 144 141 148 170 169 168 174 182 183 165 172 185 162 169 168 165 162 164 154 147 141 135 120
351 357 356 23 5 4 2 2 34 73 117 55 45 53 24 350 313 297 152 113 148 93 128 152 165 169 182 191 191 192 175 158 171 170 169 173 169 170 164 173 171 163 165
347 347 337 42 41 14 11 22 26 64 72 61 29 13 29 355 38 82 318 124 156 155 151 161 169 180 196 202 202 200 184 169 182 176 175 176 172 170 177 174 179 169 157
350 357 9 55 55 46 34 24 27 56 64 58 40 2 322 293 23 64 72 76 107 119 145 163 179 191 196 197 201 194 208 186 178 181 176 178 174 178 181 181 175 180 181
9 351 7 49 52 64 49 42 36 47 55 54 34 10 347 38 53 36 33 36 41 201 196 182 181 181 192 190 173 191 293 227 182 180 182 176 176 181 186 189 179 178 182
8 22 9 36 59 60 60 56 56 56 51 55 30 13 13 44 36 33 36 31 13 4 343 277 190 194 197 191 189 180 232 245 224 181 182 181 182 186 182 181 180 182 178
27 36 40 30 54 73 65 50 57 59 49 44 42 37 34 40 33 27 20 19 19 21 3 4 18 1 189 191 186 171 209 240 214 193 184 179 186 185 182 185 184 182 187
44 49 62 65 47 70 65 60 67 62 59 46 43 43 43 44 36 34 20 18 25 26 19 17 16 23 7 34 61 119 194 214 257 207 176 183 189 183 177 183 185 184 194
32 51 52 61 57 66 69 56 62 63 58 44 47 45 39 46 43 40 32 23 30 34 29 20 19 17 26 20 14 17 353 169 176 164 119 103 87 215 185 183 182 178 185
63 57 54 48 53 61 72 66 65 63 64 46 43 48 43 40 45 43 35 33 31 37 33 27 24 24 13 14 358 329 321 305 131 121 86 74 93 57 357 236 183 176 181